����,���ϕ���(m/s),���ϕ���,�ő�u�ԕ���(m/s),�ő啗��������,�C��(��),���x(%),10���Ԉړ��ώZ�J��(mm),1���Ԉړ��ώZ�J��(mm),���J��(mm),�݌v�J��(mm),����(���ώZ)(MJ/m2),����(���ώZ)(min),���n�C��(hPa),�C�ʋC��(hPa)
2024-01-08T00:00:00+09:00,4.2,��,7.9,��쐼,0.1,90.1,0,0,0,0,8.33,299,1006.1,1020.8
2024-01-08T00:01:00+09:00,4.4,��,7.9,��쐼,0.2,90.9,0,0,0,0,0,0,1006.2,1020.9
2024-01-08T00:02:00+09:00,4.3,��,7.9,��쐼,0.1,91.1,0,0,0,0,0,0,1006.2,1020.9
2024-01-08T00:03:00+09:00,4.3,��,7.9,��쐼,0.1,91,0,0,0,0,0,0,1006.2,1020.9
2024-01-08T00:04:00+09:00,4.2,��,7.9,��쐼,0,91.1,0,0,0,0,0,0,1006.2,1020.9
2024-01-08T00:05:00+09:00,3.9,��,7.9,��쐼,0,91.8,0,0,0,0,0,0,1006,1020.7
2024-01-08T00:06:00+09:00,3.9,��,7.9,��쐼,0,91.8,0,0,0,0,0,0,1006.1,1020.8
2024-01-08T00:07:00+09:00,3.7,��,7.1,��,0,92.1,0,0,0,0,0,0,1006.1,1020.8
2024-01-08T00:08:00+09:00,3.8,��,7.1,��,0,92.3,0,0,0,0,0,0,1006.1,1020.8
2024-01-08T00:09:00+09:00,3.7,��,7.1,��,0,92.4,0,0,0,0,0,0,1006.1,1020.8
2024-01-08T00:10:00+09:00,3.6,��,6.7,��,0,92.7,0,0,0,0,0,0,1006.1,1020.8
2024-01-08T00:11:00+09:00,3.6,��,6.7,��,0.1,92.7,0,0,0,0,0,0,1006.2,1020.9
2024-01-08T00:12:00+09:00,3.5,��,6.7,��,0.1,92.4,0,0,0,0,0,0,1006,1020.7
2024-01-08T00:13:00+09:00,3.4,��,6.7,��,0,91.8,0,0,0,0,0,0,1006.1,1020.8
2024-01-08T00:14:00+09:00,3.4,��,6.7,��,0,92.1,0,0,0,0,0,0,1006.1,1020.8
2024-01-08T00:15:00+09:00,3.7,��,6.9,��,0,92,0,0,0,0,0,0,1006,1020.7
2024-01-08T00:16:00+09:00,3.7,��,6.9,��,0.1,91.7,0,0,0,0,0,0,1006.1,1020.8
2024-01-08T00:17:00+09:00,3.8,��,6.9,��,0.1,91.7,0,0,0,0,0,0,1006,1020.7
2024-01-08T00:18:00+09:00,3.6,��쐼,6.9,��,0.1,91.5,0,0,0,0,0,0,1006.2,1020.9
2024-01-08T00:19:00+09:00,3.5,��쐼,6.9,��,0.1,91.4,0,0,0,0,0,0,1006.2,1020.9
2024-01-08T00:20:00+09:00,3.3,��쐼,6.9,��,0.1,91,0,0,0,0,0,0,1006.3,1021
2024-01-08T00:21:00+09:00,3.1,��쐼,6.9,��,0.2,91.3,0,0,0,0,0,0,1006.2,1020.9
2024-01-08T00:22:00+09:00,3,��쐼,6.9,��,0.2,91.2,0,0,0,0,0,0,1006.2,1020.9
2024-01-08T00:23:00+09:00,3.2,��쐼,7.8,��,0.2,90.8,0,0,0,0,0,0,1006.1,1020.8
2024-01-08T00:24:00+09:00,3.2,��쐼,7.8,��,0.2,89.5,0,0,0,0,0,0,1006.2,1020.9
2024-01-08T00:25:00+09:00,3.1,��쐼,7.8,��,0.2,89.5,0,0,0,0,0,0,1006.2,1020.9
2024-01-08T00:26:00+09:00,3.1,��쐼,7.8,��,0.3,89.5,0,0,0,0,0,0,1006.2,1020.9
2024-01-08T00:27:00+09:00,2.9,��쐼,7.8,��,0.3,88.8,0,0,0,0,0,0,1006.3,1021
2024-01-08T00:28:00+09:00,2.9,��,7.8,��,0.2,88.5,0,0,0,0,0,0,1006.2,1020.9
2024-01-08T00:29:00+09:00,2.9,��,7.8,��,0.2,88.6,0,0,0,0,0,0,1006.2,1020.9
2024-01-08T00:30:00+09:00,2.9,��,7.8,��,0.2,88.6,0,0,0,0,0,0,1006.3,1021
2024-01-08T00:31:00+09:00,3,��,7.8,��,0.3,88.8,0,0,0,0,0,0,1006.3,1021
2024-01-08T00:32:00+09:00,3.1,��,7.8,��,0.3,88.4,0,0,0,0,0,0,1006.4,1021.1
2024-01-08T00:33:00+09:00,2.9,��,5.6,��,0.3,88.2,0,0,0,0,0,0,1006.4,1021.1
2024-01-08T00:34:00+09:00,2.9,��,5.3,��,0.3,87.6,0,0,0,0,0,0,1006.4,1021.1
2024-01-08T00:35:00+09:00,2.9,��,5.3,��,0.3,87.4,0,0,0,0,0,0,1006.4,1021.1
2024-01-08T00:36:00+09:00,2.9,��,5.3,��,0.3,87.9,0,0,0,0,0,0,1006.4,1021.1
2024-01-08T00:37:00+09:00,3,��,5.3,��,0.3,87.5,0,0,0,0,0,0,1006.4,1021.1
2024-01-08T00:38:00+09:00,2.9,��,5.1,��,0.3,87.1,0,0,0,0,0,0,1006.4,1021.1
2024-01-08T00:39:00+09:00,3,��,5,��,0.3,87.4,0,0,0,0,0,0,1006.4,1021.1
2024-01-08T00:40:00+09:00,3.2,��,5,��,0.3,87.5,0,0,0,0,0,0,1006.4,1021.1
2024-01-08T00:41:00+09:00,3.1,��,5,��,0.3,88.2,0,0,0,0,0,0,1006.5,1021.2
2024-01-08T00:42:00+09:00,3.1,��,5,��,0.3,88.3,0,0,0,0,0,0,1006.4,1021.1
2024-01-08T00:43:00+09:00,3.1,��,5,��,0.4,88.3,0,0,0,0,0,0,1006.5,1021.2
2024-01-08T00:44:00+09:00,3.1,��,5,��,0.4,88.1,0,0,0,0,0,0,1006.5,1021.2
2024-01-08T00:45:00+09:00,3,��,5,��,0.4,87.5,0,0,0,0,0,0,1006.4,1021.1
2024-01-08T00:46:00+09:00,3,��,5,��,0.4,87.4,0,0,0,0,0,0,1006.4,1021.1
2024-01-08T00:47:00+09:00,2.8,��,5,��,0.4,87.4,0,0,0,0,0,0,1006.5,1021.2
2024-01-08T00:48:00+09:00,2.8,��,5,��,0.4,87.3,0,0,0,0,0,0,1006.6,1021.3
2024-01-08T00:49:00+09:00,2.7,��,4.7,��쐼,0.4,87.1,0,0,0,0,0,0,1006.6,1021.3
2024-01-08T00:50:00+09:00,2.6,��,4.7,��쐼,0.4,86.9,0,0,0,0,0,0,1006.6,1021.3
2024-01-08T00:51:00+09:00,2.5,��쐼,4.7,��쐼,0.5,87,0,0,0,0,0,0,1006.6,1021.3
2024-01-08T00:52:00+09:00,2.4,��쐼,4.4,��쐼,0.5,86.8,0,0,0,0,0,0,1006.6,1021.3
2024-01-08T00:53:00+09:00,2.3,��쐼,4.4,��쐼,0.5,86.3,0,0,0,0,0,0,1006.7,1021.4
2024-01-08T00:54:00+09:00,2.2,��쐼,4.4,��쐼,0.4,86.2,0,0,0,0,0,0,1006.7,1021.4
2024-01-08T00:55:00+09:00,2.1,��쐼,4.4,��쐼,0.4,86.2,0,0,0,0,0,0,1006.7,1021.4
2024-01-08T00:56:00+09:00,2,��쐼,4.3,��,0.5,86,0,0,0,0,0,0,1006.6,1021.3
2024-01-08T00:57:00+09:00,2,��쐼,4.3,��,0.4,85.3,0,0,0,0,0,0,1006.6,1021.3
2024-01-08T00:58:00+09:00,1.8,��쐼,4.3,��,0.7,86.2,0,0,0,0,0,0,1006.7,1021.3
2024-01-08T00:59:00+09:00,1.7,��쐼,3.3,��,0.8,86.9,0,0,0,0,0,0,1006.8,1021.4
2024-01-08T01:00:00+09:00,1.6,��쐼,3.3,��,0.6,85.7,0,0,0,0,0,0,1006.8,1021.4
2024-01-08T01:01:00+09:00,1.6,��쐼,3.3,��,0.4,86.6,0,0,0,0,0,0,1006.7,1021.4
2024-01-08T01:02:00+09:00,1.6,��쐼,3.1,�쐼,0.4,86.6,0,0,0,0,0,0,1006.6,1021.3
2024-01-08T01:03:00+09:00,1.8,�쐼,4.5,���쐼,0.6,84.5,0,0,0,0,0,0,1006.7,1021.3
2024-01-08T01:04:00+09:00,2,�쐼,4.5,���쐼,0.7,83.4,0,0,0,0,0,0,1006.8,1021.4
2024-01-08T01:05:00+09:00,2.1,�쐼,4.5,���쐼,0.7,84,0,0,0,0,0,0,1006.8,1021.4
2024-01-08T01:06:00+09:00,2.1,�쐼,4.5,���쐼,0.7,84.4,0,0,0,0,0,0,1006.9,1021.5
2024-01-08T01:07:00+09:00,2.3,���쐼,5.7,��,0.6,85.7,0,0,0,0,0,0,1006.8,1021.4
2024-01-08T01:08:00+09:00,2.5,���쐼,5.7,��,0.6,87.8,0,0,0,0,0,0,1006.8,1021.4
2024-01-08T01:09:00+09:00,2.4,���쐼,5.7,��,0.6,88.9,0,0,0,0,0,0,1006.9,1021.6
2024-01-08T01:10:00+09:00,2.4,��,5.7,��,0.7,89.2,0,0,0,0,0,0,1006.9,1021.5
2024-01-08T01:11:00+09:00,2.3,��,5.7,��,1,90.3,0,0,0,0,0,0,1006.9,1021.5
2024-01-08T01:12:00+09:00,2.2,��,5.7,��,0.7,89.3,0,0,0,0,0,0,1007,1021.6
2024-01-08T01:13:00+09:00,1.8,��,5.7,��,0.6,89.2,0,0,0,0,0,0,1006.9,1021.6
2024-01-08T01:14:00+09:00,1.7,��,5.7,��,0.6,89.7,0,0,0,0,0,0,1006.8,1021.4
2024-01-08T01:15:00+09:00,1.5,��,5.7,��,0.4,89.8,0,0,0,0,0,0,1006.9,1021.6
2024-01-08T01:16:00+09:00,1.4,��,5.7,��,0.5,89.3,0,0,0,0,0,0,1006.8,1021.5
2024-01-08T01:17:00+09:00,1,��,3.8,�k��,0.5,89,0,0,0,0,0,0,1006.9,1021.6
2024-01-08T01:18:00+09:00,0.9,��,2,��,0.6,89.3,0,0,0,0,0,0,1006.9,1021.6
2024-01-08T01:19:00+09:00,0.8,���쐼,2,��,0.6,89.7,0,0,0,0,0,0,1006.8,1021.4
2024-01-08T01:20:00+09:00,0.8,���쐼,2,��,0.6,90.1,0,0,0,0,0,0,1006.8,1021.4
2024-01-08T01:21:00+09:00,0.8,���쐼,2,��,0.5,90,0,0,0,0,0,0,1006.8,1021.5
2024-01-08T01:22:00+09:00,0.9,���쐼,2,��,0.4,88.4,0,0,0,0,0,0,1006.9,1021.6
2024-01-08T01:23:00+09:00,0.9,���쐼,2,��,0.5,89.4,0,0,0,0,0,0,1007,1021.7
2024-01-08T01:24:00+09:00,0.9,���쐼,2,��,0.4,89.1,0,0,0,0,0,0,1006.9,1021.6
2024-01-08T01:25:00+09:00,0.9,���쐼,1.9,��,0.6,89.1,0,0,0,0,0,0,1006.9,1021.6
2024-01-08T01:26:00+09:00,0.9,���쐼,1.9,��,0.6,88.8,0,0,0,0,0,0,1006.9,1021.6
2024-01-08T01:27:00+09:00,1,��,1.9,��,0.5,88.5,0,0,0,0,0,0,1007.1,1021.8
2024-01-08T01:28:00+09:00,1,��,1.9,��,0.5,89.4,0,0,0,0,0,0,1007,1021.7
2024-01-08T01:29:00+09:00,1,���쐼,1.9,��,0.6,89.9,0,0,0,0,0,0,1007,1021.7
2024-01-08T01:30:00+09:00,1.1,���쐼,1.9,��,0.4,89.5,0,0,0,0,0,0,1007,1021.7
2024-01-08T01:31:00+09:00,1,��,1.9,��,0.6,89.8,0,0,0,0,0,0,1007.1,1021.8
2024-01-08T01:32:00+09:00,1,���쐼,1.9,��,0.5,90.1,0,0,0,0,0,0,1007,1021.7
2024-01-08T01:33:00+09:00,1.1,���쐼,2.5,��,0.5,88.5,0,0,0,0,0,0,1007.1,1021.8
2024-01-08T01:34:00+09:00,1.1,���쐼,2.5,��,0.6,87.1,0,0,0,0,0,0,1007.2,1021.9
2024-01-08T01:35:00+09:00,1,���쐼,2.5,��,0.7,86.8,0,0,0,0,0,0,1007.1,1021.7
2024-01-08T01:36:00+09:00,0.9,���쐼,2.5,��,0.8,86.6,0,0,0,0,0,0,1007.2,1021.8
2024-01-08T01:37:00+09:00,0.8,���쐼,2.5,��,0.8,86.5,0,0,0,0,0,0,1007.2,1021.8
2024-01-08T01:38:00+09:00,0.9,���쐼,2.5,��,0.8,87.1,0,0,0,0,0,0,1007.2,1021.8
2024-01-08T01:39:00+09:00,0.8,���쐼,2.5,��,0.6,87.3,0,0,0,0,0,0,1007.3,1022
2024-01-08T01:40:00+09:00,0.8,���쐼,2.5,��,0.9,88.7,0,0,0,0,0,0,1007.4,1022
2024-01-08T01:41:00+09:00,0.8,���쐼,2.5,��,0.8,88.6,0,0,0,0,0,0,1007.3,1021.9
2024-01-08T01:42:00+09:00,0.8,���쐼,2.5,��,0.7,85.9,0,0,0,0,0,0,1007.2,1021.8
2024-01-08T01:43:00+09:00,0.8,���쐼,2,���쐼,0.8,84.7,0,0,0,0,0,0,1007.3,1021.9
2024-01-08T01:44:00+09:00,0.8,���쐼,2,���쐼,0.8,85.8,0,0,0,0,0,0,1007.3,1021.9
2024-01-08T01:45:00+09:00,0.8,��,2,���쐼,0.8,86,0,0,0,0,0,0,1007.3,1021.9
2024-01-08T01:46:00+09:00,0.8,��,2,���쐼,0.9,86,0,0,0,0,0,0,1007.5,1022.1
2024-01-08T01:47:00+09:00,0.9,���k��,2,���쐼,1,85.7,0,0,0,0,0,0,1007.5,1022.1
2024-01-08T01:48:00+09:00,0.9,�k��,2.1,�k��,1,85.8,0,0,0,0,0,0,1007.4,1022
2024-01-08T01:49:00+09:00,1,���k��,2.3,�쐼,1,86.5,0,0,0,0,0,0,1007.4,1022
2024-01-08T01:50:00+09:00,1.2,�k��,4.3,���쐼,0.8,85.6,0,0,0,0,0,0,1007.4,1022
2024-01-08T01:51:00+09:00,1.4,�k��,5.4,�k��,0.7,84,0,0,0,0,0,0,1007.4,1022.1
2024-01-08T01:52:00+09:00,1.3,�k�k��,5.4,�k��,0.7,85.5,0,0,0,0,0,0,1007.4,1022.1
2024-01-08T01:53:00+09:00,1.4,�k�k��,5.4,�k��,0.7,86.4,0,0,0,0,0,0,1007.4,1022.1
2024-01-08T01:54:00+09:00,1.6,�k��,5.4,�k��,0.7,85.5,0,0,0,0,0,0,1007.4,1022.1
2024-01-08T01:55:00+09:00,1.7,�k��,5.4,�k��,0.8,82.3,0,0,0,0,0,0,1007.4,1022
2024-01-08T01:56:00+09:00,1.8,���k��,5.4,�k��,0.8,82.4,0,0,0,0,0,0,1007.3,1021.9
2024-01-08T01:57:00+09:00,1.9,���k��,5.4,�k��,0.8,82,0,0,0,0,0,0,1007.4,1022
2024-01-08T01:58:00+09:00,2,���k��,5.4,�k��,1,81.2,0,0,0,0,0,0,1007.4,1022
2024-01-08T01:59:00+09:00,2.1,���k��,5.4,�k��,1.2,79.7,0,0,0,0,0,0,1007.4,1022
2024-01-08T02:00:00+09:00,2,���k��,5.4,�k��,1.1,80.7,0,0,0,0,0,0,1007.3,1021.9
2024-01-08T02:01:00+09:00,1.8,���k��,3.7,���k��,1.1,81.1,0,0,0,0,0,0,1007.4,1022
2024-01-08T02:02:00+09:00,1.8,���k��,3.7,���k��,1.2,81.7,0,0,0,0,0,0,1007.4,1022
2024-01-08T02:03:00+09:00,1.6,�k��,3.7,���k��,1.1,81.2,0,0,0,0,0,0,1007.4,1022
2024-01-08T02:04:00+09:00,1.5,�k��,3.7,���k��,1.1,81.8,0,0,0,0,0,0,1007.5,1022.1
2024-01-08T02:05:00+09:00,1.2,�k��,3.7,���k��,1,82.1,0,0,0,0,0,0,1007.4,1022
2024-01-08T02:06:00+09:00,1.1,�k�k��,3.7,���k��,1,82,0,0,0,0,0,0,1007.5,1022.1
2024-01-08T02:07:00+09:00,1,�k�k��,3.1,���k��,1,83.1,0,0,0,0,0,0,1007.6,1022.2
2024-01-08T02:08:00+09:00,0.9,�k�k��,2.4,�k��,0.8,83.5,0,0,0,0,0,0,1007.6,1022.2
2024-01-08T02:09:00+09:00,0.7,�k,2.1,���k��,0.6,84.1,0,0,0,0,0,0,1007.6,1022.3
2024-01-08T02:10:00+09:00,0.6,�k�k��,1.7,�k��,0.5,84.9,0,0,0,0,0,0,1007.6,1022.3
2024-01-08T02:11:00+09:00,0.5,�k��,1.7,�k��,0.6,86.2,0,0,0,0,0,0,1007.7,1022.4
2024-01-08T02:12:00+09:00,0.4,���k��,1.6,�k,0.7,87.2,0,0,0,0,0,0,1007.6,1022.3
2024-01-08T02:13:00+09:00,0.5,���k��,1.7,��,0.6,86.8,0,0,0,0,0,0,1007.6,1022.3
2024-01-08T02:14:00+09:00,0.6,���k��,1.7,��,0.6,87,0,0,0,0,0,0,1007.6,1022.3
2024-01-08T02:15:00+09:00,0.7,���k��,1.8,��,1,88.3,0,0,0,0,0,0,1007.6,1022.2
2024-01-08T02:16:00+09:00,0.7,���k��,1.8,��,0.7,87.2,0,0,0,0,0,0,1007.6,1022.3
2024-01-08T02:17:00+09:00,0.7,��,1.8,��,0.6,87,0,0,0,0,0,0,1007.6,1022.3
2024-01-08T02:18:00+09:00,0.6,��,1.8,��,0.5,87.6,0,0,0,0,0,0,1007.7,1022.4
2024-01-08T02:19:00+09:00,0.7,��,1.8,��,0.5,87.8,0,0,0,0,0,0,1007.7,1022.4
2024-01-08T02:20:00+09:00,0.7,���쓌,1.8,��,0.5,87.7,0,0,0,0,0,0,1007.7,1022.4
2024-01-08T02:21:00+09:00,0.7,���쓌,1.8,��,0.6,88,0,0,0,0,0,0,1007.7,1022.4
2024-01-08T02:22:00+09:00,0.7,���쓌,1.8,��,0.6,87.8,0,0,0,0,0,0,1007.7,1022.4
2024-01-08T02:23:00+09:00,0.6,�쓌,1.8,��,0.9,88.3,0,0,0,0,0,0,1007.7,1022.3
2024-01-08T02:24:00+09:00,0.5,�쓌,1.8,��,0.9,89.5,0,0,0,0,0,0,1007.8,1022.4
2024-01-08T02:25:00+09:00,0.3,�쓌,1.7,��,0.8,88.5,0,0,0,0,0,0,1007.7,1022.4
2024-01-08T02:26:00+09:00,0.2,�É�,1.1,��,0.8,89.1,0,0,0,0,0,0,1007.7,1022.4
2024-01-08T02:27:00+09:00,0.2,�É�,1.1,��,0.5,88.3,0,0,0,0,0,0,1007.6,1022.3
2024-01-08T02:28:00+09:00,0.2,�É�,1.1,��,0.5,87.5,0,0,0,0,0,0,1007.6,1022.3
2024-01-08T02:29:00+09:00,0.2,�É�,1.1,��,0.7,88.8,0,0,0,0,0,0,1007.7,1022.4
2024-01-08T02:30:00+09:00,0.1,�É�,0.7,��쓌,0.6,89,0,0,0,0,0,0,1007.7,1022.4
2024-01-08T02:31:00+09:00,0.1,�É�,0.5,�k��,0.4,88.4,0,0,0,0,0,0,1007.7,1022.4
2024-01-08T02:32:00+09:00,0.1,�É�,0.5,�k��,0.5,89,0,0,0,0,0,0,1007.6,1022.3
2024-01-08T02:33:00+09:00,0.2,�É�,1.1,�k�k��,0.5,89.7,0,0,0,0,0,0,1007.6,1022.3
2024-01-08T02:34:00+09:00,0.3,�k,1.1,�k�k��,0.5,90,0,0,0,0,0,0,1007.6,1022.3
2024-01-08T02:35:00+09:00,0.3,�k,1.1,�k�k��,0.4,90,0,0,0,0,0,0,1007.6,1022.3
2024-01-08T02:36:00+09:00,0.3,�k,1.1,�k�k��,0.3,89.9,0,0,0,0,0,0,1007.6,1022.3
2024-01-08T02:37:00+09:00,0.3,�k,1.1,�k�k��,0.4,90,0,0,0,0,0,0,1007.6,1022.3
2024-01-08T02:38:00+09:00,0.3,�k,1.1,�k�k��,0.4,90.5,0,0,0,0,0,0,1007.5,1022.2
2024-01-08T02:39:00+09:00,0.3,�k,1.1,�k�k��,0.7,91.7,0,0,0,0,0,0,1007.6,1022.3
2024-01-08T02:40:00+09:00,0.3,�k,1.1,�k�k��,0.3,91,0,0,0,0,0,0,1007.6,1022.3
2024-01-08T02:41:00+09:00,0.3,�k,1.1,�k�k��,0.3,91,0,0,0,0,0,0,1007.7,1022.4
2024-01-08T02:42:00+09:00,0.3,�k�k��,1.1,�k�k��,0.4,91.8,0,0,0,0,0,0,1007.8,1022.5
2024-01-08T02:43:00+09:00,0.3,�k�k��,1.1,�k�k��,0.3,91.4,0,0,0,0,0,0,1007.6,1022.3
2024-01-08T02:44:00+09:00,0.3,��,0.8,�쓌,0.3,90.7,0,0,0,0,0,0,1007.7,1022.4
2024-01-08T02:45:00+09:00,0.2,�É�,0.8,�쓌,0.2,91.2,0,0,0,0,0,0,1007.7,1022.4
2024-01-08T02:46:00+09:00,0.2,�É�,0.8,�쓌,0.2,91.5,0,0,0,0,0,0,1007.8,1022.5
2024-01-08T02:47:00+09:00,0.2,�É�,0.8,�쓌,0.2,91.9,0,0,0,0,0,0,1007.7,1022.4
2024-01-08T02:48:00+09:00,0.3,�쐼,0.8,�쓌,0.1,91.9,0,0,0,0,0,0,1007.7,1022.4
2024-01-08T02:49:00+09:00,0.3,�쐼,1.1,��쐼,0.2,92.1,0,0,0,0,0,0,1007.7,1022.4
2024-01-08T02:50:00+09:00,0.4,��쐼,1.1,��쐼,0.2,91.4,0,0,0,0,0,0,1007.7,1022.4
2024-01-08T02:51:00+09:00,0.4,��쐼,1.1,��쐼,0.2,90.8,0,0,0,0,0,0,1007.8,1022.5
2024-01-08T02:52:00+09:00,0.4,��쐼,1.1,��쐼,0.3,90.5,0,0,0,0,0,0,1007.7,1022.4
2024-01-08T02:53:00+09:00,0.4,�쐼,1.1,��쐼,0.5,90.9,0,0,0,0,0,0,1007.8,1022.5
2024-01-08T02:54:00+09:00,0.4,�쐼,1.1,��쐼,0.5,90.8,0,0,0,0,0,0,1007.7,1022.4
2024-01-08T02:55:00+09:00,0.4,��쐼,1.1,��쐼,0.5,90.3,0,0,0,0,0,0,1007.7,1022.4
2024-01-08T02:56:00+09:00,0.4,��,1.1,��쐼,0.4,89.7,0,0,0,0,0,0,1007.7,1022.4
2024-01-08T02:57:00+09:00,0.4,��,1.1,��쐼,0.4,89.8,0,0,0,0,0,0,1007.7,1022.4
2024-01-08T02:58:00+09:00,0.4,��쓌,1.1,��쐼,0.3,90,0,0,0,0,0,0,1007.8,1022.5
2024-01-08T02:59:00+09:00,0.3,��쓌,1.1,��쐼,0.2,89.8,0,0,0,0,0,0,1007.7,1022.4
2024-01-08T03:00:00+09:00,0.3,��쓌,1.4,��,0.3,90.2,0,0,0,0,0,0,1007.6,1022.3
2024-01-08T03:01:00+09:00,0.3,��쓌,1.4,��,0,89.9,0,0,0,0,0,0,1007.8,1022.5
2024-01-08T03:02:00+09:00,0.3,��쓌,1.4,��,0,90.2,0,0,0,0,0,0,1007.8,1022.5
2024-01-08T03:03:00+09:00,0.2,�É�,1.4,��,0,90.6,0,0,0,0,0,0,1007.8,1022.5
2024-01-08T03:04:00+09:00,0.3,��쐼,1.4,��,0.3,91.3,0,0,0,0,0,0,1007.9,1022.6
2024-01-08T03:05:00+09:00,0.3,��쐼,1.4,��,0.3,91.2,0,0,0,0,0,0,1007.9,1022.6
2024-01-08T03:06:00+09:00,0.3,��쐼,1.4,��,0.2,90.2,0,0,0,0,0,0,1007.8,1022.5
2024-01-08T03:07:00+09:00,0.4,��쐼,1.4,��,0,89.2,0,0,0,0,0,0,1007.8,1022.5
2024-01-08T03:08:00+09:00,0.4,��쐼,1.4,��,0,88.7,0,0,0,0,0,0,1007.8,1022.5
2024-01-08T03:09:00+09:00,0.4,��쐼,1.4,��,0,88.9,0,0,0,0,0,0,1007.9,1022.6
2024-01-08T03:10:00+09:00,0.4,�쐼,1.4,��쓌,0,89.5,0,0,0,0,0,0,1007.9,1022.6
2024-01-08T03:11:00+09:00,0.5,�쐼,1.4,��쓌,0,90.6,0,0,0,0,0,0,1008,1022.7
2024-01-08T03:12:00+09:00,0.6,�쐼,1.4,��쓌,0,90.6,0,0,0,0,0,0,1008,1022.7
2024-01-08T03:13:00+09:00,0.7,��쐼,2,��쐼,0.1,90.4,0,0,0,0,0,0,1008,1022.7
2024-01-08T03:14:00+09:00,0.8,��쐼,2,��쐼,0.1,90.5,0,0,0,0,0,0,1007.9,1022.6
2024-01-08T03:15:00+09:00,0.9,��쐼,2.4,��쐼,0,90.1,0,0,0,0,0,0,1008,1022.7
2024-01-08T03:16:00+09:00,0.9,��쐼,2.4,��쐼,-0.1,89.9,0,0,0,0,0,0,1008,1022.7
2024-01-08T03:17:00+09:00,0.9,�쐼,2.4,��쐼,-0.2,90,0,0,0,0,0,0,1008.1,1022.8
2024-01-08T03:18:00+09:00,1,�쐼,2.4,��쐼,-0.3,89.9,0,0,0,0,0,0,1008.1,1022.8
2024-01-08T03:19:00+09:00,1.1,�쐼,2.4,��쐼,-0.3,90,0,0,0,0,0,0,1008,1022.7
2024-01-08T03:20:00+09:00,1.1,�쐼,2.4,��쐼,-0.2,90.5,0,0,0,0,0,0,1008,1022.7
2024-01-08T03:21:00+09:00,1.1,�쐼,2.4,��쐼,-0.1,90.9,0,0,0,0,0,0,1008.1,1022.8
2024-01-08T03:22:00+09:00,1.1,�쐼,2.4,��쐼,-0.3,90.5,0,0,0,0,0,0,1008.1,1022.8
2024-01-08T03:23:00+09:00,1.2,�쐼,2.9,��쐼,-0.4,90.3,0,0,0,0,0,0,1008,1022.7
2024-01-08T03:24:00+09:00,1.1,�쐼,2.9,��쐼,-0.5,90.3,0,0,0,0,0,0,1008,1022.7
2024-01-08T03:25:00+09:00,1,��쐼,2.9,��쐼,-0.5,90.7,0,0,0,0,0,0,1007.9,1022.6
2024-01-08T03:26:00+09:00,1,�쐼,2.9,��쐼,-0.6,90.7,0,0,0,0,0,0,1007.9,1022.6
2024-01-08T03:27:00+09:00,1,�쐼,2.9,��쐼,-0.3,91.6,0,0,0,0,0,0,1008,1022.7
2024-01-08T03:28:00+09:00,0.9,�쐼,2.9,��쐼,-0.3,92.2,0,0,0,0,0,0,1008.1,1022.8
2024-01-08T03:29:00+09:00,1,�쐼,2.9,��쐼,-0.5,91,0,0,0,0,0,0,1008.1,1022.8
2024-01-08T03:30:00+09:00,1.1,�쐼,2.9,��쐼,-0.4,91.2,0,0,0,0,0,0,1008.1,1022.8
2024-01-08T03:31:00+09:00,1.2,�쐼,2.9,��쐼,-0.4,91.2,0,0,0,0,0,0,1008.1,1022.8
2024-01-08T03:32:00+09:00,1.2,�쐼,2.9,��쐼,-0.3,90.6,0,0,0,0,0,0,1008,1022.7
2024-01-08T03:33:00+09:00,1.1,�쐼,2.6,�쐼,-0.4,90.1,0,0,0,0,0,0,1008,1022.7
2024-01-08T03:34:00+09:00,1,�쐼,2.6,�쐼,-0.4,90.1,0,0,0,0,0,0,1008,1022.7
2024-01-08T03:35:00+09:00,1,�쐼,2.6,�쐼,-0.3,90.8,0,0,0,0,0,0,1008,1022.7
2024-01-08T03:36:00+09:00,1.1,�쐼,2.6,�쐼,-0.5,90.4,0,0,0,0,0,0,1007.9,1022.6
2024-01-08T03:37:00+09:00,1.1,�쐼,2.6,�쐼,-0.6,90.3,0,0,0,0,0,0,1007.9,1022.6
2024-01-08T03:38:00+09:00,1.1,��쐼,2.6,�쐼,-0.6,90.6,0,0,0,0,0,0,1008,1022.7
2024-01-08T03:39:00+09:00,1,��쐼,2.6,�쐼,-0.7,91,0,0,0,0,0,0,1008,1022.7
2024-01-08T03:40:00+09:00,0.9,��,2.3,��쓌,-0.7,91.5,0,0,0,0,0,0,1008,1022.7
2024-01-08T03:41:00+09:00,0.8,��,2.3,��쓌,-0.6,91.9,0,0,0,0,0,0,1007.9,1022.6
2024-01-08T03:42:00+09:00,0.7,��쓌,1.8,��쐼,-0.6,92.1,0,0,0,0,0,0,1007.9,1022.6
2024-01-08T03:43:00+09:00,0.7,��쓌,1.7,�쓌,-0.6,92.1,0,0,0,0,0,0,1007.9,1022.6
2024-01-08T03:44:00+09:00,0.8,��쓌,1.9,��,-0.6,92,0,0,0,0,0,0,1007.9,1022.6
2024-01-08T03:45:00+09:00,0.9,��쓌,2.7,��쐼,-0.4,92,0,0,0,0,0,0,1007.9,1022.6
2024-01-08T03:46:00+09:00,1.1,��쓌,2.9,��쐼,-0.4,92.3,0,0,0,0,0,0,1007.9,1022.6
2024-01-08T03:47:00+09:00,1.2,��쓌,2.9,��쐼,-0.5,91.4,0,0,0,0,0,0,1007.9,1022.6
2024-01-08T03:48:00+09:00,1.2,��,2.9,��쐼,-0.5,91,0,0,0,0,0,0,1007.8,1022.5
2024-01-08T03:49:00+09:00,1.3,��,2.9,��쐼,-0.4,91.1,0,0,0,0,0,0,1007.9,1022.6
2024-01-08T03:50:00+09:00,1.3,��,2.9,��쐼,-0.2,92.1,0,0,0,0,0,0,1007.9,1022.6
2024-01-08T03:51:00+09:00,1.4,��,2.9,��쐼,-0.4,91,0,0,0,0,0,0,1007.9,1022.6
2024-01-08T03:52:00+09:00,1.5,��쐼,2.9,��쐼,-0.4,90.1,0,0,0,0,0,0,1007.9,1022.6
2024-01-08T03:53:00+09:00,1.6,��쐼,2.9,��쐼,-0.3,90.2,0,0,0,0,0,0,1007.9,1022.6
2024-01-08T03:54:00+09:00,1.5,��쐼,2.9,��쐼,-0.2,90.5,0,0,0,0,0,0,1008,1022.7
2024-01-08T03:55:00+09:00,1.3,��쐼,2.9,��쐼,-0.4,90.2,0,0,0,0,0,0,1008,1022.7
2024-01-08T03:56:00+09:00,1.2,��쐼,2.8,��쐼,-0.5,89.8,0,0,0,0,0,0,1007.9,1022.6
2024-01-08T03:57:00+09:00,1,�쐼,2.1,��,-0.5,89.9,0,0,0,0,0,0,1008,1022.7
2024-01-08T03:58:00+09:00,1,��쐼,2.1,��,-0.4,90.4,0,0,0,0,0,0,1008,1022.7
2024-01-08T03:59:00+09:00,0.9,��쐼,2.1,��,-0.5,90.3,0,0,0,0,0,0,1008,1022.7
2024-01-08T04:00:00+09:00,0.8,��쓌,2.1,��,-0.4,90.4,0,0,0,0,0,0,1008,1022.7
2024-01-08T04:01:00+09:00,0.7,���k��,2.1,��,-0.5,90.6,0,0,0,0,0,0,1008,1022.7
2024-01-08T04:02:00+09:00,0.6,�k,1.9,��,-0.5,90.5,0,0,0,0,0,0,1008.1,1022.8
2024-01-08T04:03:00+09:00,0.5,�k�k��,1.4,�k��,-0.4,90.9,0,0,0,0,0,0,1008.1,1022.8
2024-01-08T04:04:00+09:00,0.5,�k��,1.4,�k��,-0.3,91.1,0,0,0,0,0,0,1008,1022.7
2024-01-08T04:05:00+09:00,0.5,�k��,1.4,�k��,-0.5,90.4,0,0,0,0,0,0,1008,1022.7
2024-01-08T04:06:00+09:00,0.5,�k�k��,1.3,���k��,-0.5,90.4,0,0,0,0,0,0,1008,1022.7
2024-01-08T04:07:00+09:00,0.4,�k�k��,1.3,���k��,-0.6,90.7,0,0,0,0,0,0,1008.1,1022.8
2024-01-08T04:08:00+09:00,0.4,�k�k��,1.3,���k��,-0.6,90.8,0,0,0,0,0,0,1008.1,1022.8
2024-01-08T04:09:00+09:00,0.3,�k��,1.3,���k��,-0.5,91.3,0,0,0,0,0,0,1008.1,1022.8
2024-01-08T04:10:00+09:00,0.3,���k��,0.9,�쐼,-0.5,91.7,0,0,0,0,0,0,1008,1022.7
2024-01-08T04:11:00+09:00,0.2,�É�,0.9,�쐼,-0.6,91.4,0,0,0,0,0,0,1008,1022.7
2024-01-08T04:12:00+09:00,0.2,�É�,0.8,�k��,-0.5,91.4,0,0,0,0,0,0,1008,1022.7
2024-01-08T04:13:00+09:00,0.2,�É�,0.8,�k��,-0.5,92.1,0,0,0,0,0,0,1008,1022.7
2024-01-08T04:14:00+09:00,0.1,�É�,0.8,�k��,-0.6,91.6,0,0,0,0,0,0,1008,1022.7
2024-01-08T04:15:00+09:00,0.1,�É�,0.4,�k�k��,-0.6,91.5,0,0,0,0,0,0,1008,1022.7
2024-01-08T04:16:00+09:00,0,�É�,0.3,��,-0.5,91.6,0,0,0,0,0,0,1008,1022.7
2024-01-08T04:17:00+09:00,0,�É�,0.3,��,-0.3,91.7,0,0,0,0,0,0,1008,1022.7
2024-01-08T04:18:00+09:00,0.1,�É�,0.3,��,-0.4,91.6,0,0,0,0,0,0,1008.1,1022.8
2024-01-08T04:19:00+09:00,0.1,�É�,0.6,���쐼,-0.4,91.2,0,0,0,0,0,0,1008.1,1022.8
2024-01-08T04:20:00+09:00,0.1,�É�,0.8,��,-0.6,91.6,0,0,0,0,0,0,1008.1,1022.8
2024-01-08T04:21:00+09:00,0.1,�É�,0.8,��,-0.5,91.7,0,0,0,0,0,0,1008.1,1022.8
2024-01-08T04:22:00+09:00,0.2,�É�,0.9,��,-0.4,92.7,0,0,0,0,0,0,1008.2,1022.9
2024-01-08T04:23:00+09:00,0.2,�É�,0.9,��,-0.4,91.9,0,0,0,0,0,0,1008.2,1022.9
2024-01-08T04:24:00+09:00,0.2,�É�,0.9,��,-0.4,92.3,0,0,0,0,0,0,1008.2,1022.9
2024-01-08T04:25:00+09:00,0.3,��,0.9,��,-0.4,92.2,0,0,0,0,0,0,1008.3,1023
2024-01-08T04:26:00+09:00,0.3,��,0.9,��,-0.4,92.2,0,0,0,0,0,0,1008.3,1023
2024-01-08T04:27:00+09:00,0.3,���k��,0.9,��,-0.4,92.4,0,0,0,0,0,0,1008.3,1023
2024-01-08T04:28:00+09:00,0.3,�k��,0.9,��,-0.3,92.2,0,0,0,0,0,0,1008.3,1023
2024-01-08T04:29:00+09:00,0.3,�k��,0.9,��,-0.3,92,0,0,0,0,0,0,1008.4,1023.1
2024-01-08T04:30:00+09:00,0.3,�k��,0.9,��,-0.3,91.9,0,0,0,0,0,0,1008.5,1023.2
2024-01-08T04:31:00+09:00,0.3,�k��,0.9,��,-0.2,92,0,0,0,0,0,0,1008.5,1023.2
2024-01-08T04:32:00+09:00,0.3,�k��,0.6,���k��,-0.2,92.3,0,0,0,0,0,0,1008.5,1023.2
2024-01-08T04:33:00+09:00,0.3,�k�k��,0.6,���k��,-0.3,92,0,0,0,0,0,0,1008.5,1023.2
2024-01-08T04:34:00+09:00,0.2,�É�,0.6,���k��,-0.2,92.6,0,0,0,0,0,0,1008.5,1023.2
2024-01-08T04:35:00+09:00,0.2,�É�,0.6,���k��,-0.2,92.7,0,0,0,0,0,0,1008.6,1023.3
2024-01-08T04:36:00+09:00,0.2,�É�,0.6,���k��,-0.2,92.2,0,0,0,0,0,0,1008.6,1023.3
2024-01-08T04:37:00+09:00,0.2,�É�,0.6,���k��,-0.3,91.5,0,0,0,0,0,0,1008.6,1023.3
2024-01-08T04:38:00+09:00,0.2,�É�,1,��,-0.3,91.2,0,0,0,0,0,0,1008.7,1023.4
2024-01-08T04:39:00+09:00,0.3,���k��,1.2,��,-0.1,91.3,0,0,0,0,0,0,1008.6,1023.3
2024-01-08T04:40:00+09:00,0.3,��,1.4,��,-0.2,91.7,0,0,0,0,0,0,1008.7,1023.4
2024-01-08T04:41:00+09:00,0.3,��,1.4,��,-0.3,90.6,0,0,0,0,0,0,1008.7,1023.4
2024-01-08T04:42:00+09:00,0.3,���쐼,1.4,��,-0.1,91.3,0,0,0,0,0,0,1008.7,1023.4
2024-01-08T04:43:00+09:00,0.3,��쐼,1.4,��,-0.3,91.4,0,0,0,0,0,0,1008.7,1023.4
2024-01-08T04:44:00+09:00,0.3,��,1.4,��,-0.3,91.1,0,0,0,0,0,0,1008.7,1023.4
2024-01-08T04:45:00+09:00,0.3,��쐼,1.4,��,-0.3,91.4,0,0,0,0,0,0,1008.7,1023.4
2024-01-08T04:46:00+09:00,0.3,��쐼,1.4,��,-0.2,92.2,0,0,0,0,0,0,1008.7,1023.4
2024-01-08T04:47:00+09:00,0.4,�쐼,1.4,��,-0.1,92.6,0,0,0,0,0,0,1008.8,1023.5
2024-01-08T04:48:00+09:00,0.4,���쐼,1.4,��,-0.2,92.3,0,0,0,0,0,0,1008.7,1023.4
2024-01-08T04:49:00+09:00,0.4,���쐼,1.4,��,-0.3,92.2,0,0,0,0,0,0,1008.8,1023.5
2024-01-08T04:50:00+09:00,0.3,��,1,��,-0.2,92.8,0,0,0,0,0,0,1008.7,1023.4
2024-01-08T04:51:00+09:00,0.4,��,0.8,���k��,-0.2,93.4,0,0,0,0,0,0,1008.7,1023.4
2024-01-08T04:52:00+09:00,0.4,���k��,0.8,���k��,-0.1,93.4,0,0,0,0,0,0,1008.7,1023.4
2024-01-08T04:53:00+09:00,0.3,���k��,0.8,���k��,-0.2,93.3,0,0,0,0,0,0,1008.7,1023.4
2024-01-08T04:54:00+09:00,0.4,�k��,0.8,���k��,-0.3,92.9,0,0,0,0,0,0,1008.8,1023.5
2024-01-08T04:55:00+09:00,0.4,�k��,0.8,���k��,-0.3,93,0,0,0,0,0,0,1008.8,1023.5
2024-01-08T04:56:00+09:00,0.4,�k��,0.8,���k��,-0.2,93.3,0,0,0,0,0,0,1008.9,1023.6
2024-01-08T04:57:00+09:00,0.4,�k��,0.8,���k��,-0.1,93.6,0,0,0,0,0,0,1008.9,1023.6
2024-01-08T04:58:00+09:00,0.4,�k��,0.8,���k��,-0.2,93.3,0,0,0,0,0,0,1008.9,1023.6
2024-01-08T04:59:00+09:00,0.4,�k��,0.8,���k��,-0.2,93.2,0,0,0,0,0,0,1008.9,1023.6
2024-01-08T05:00:00+09:00,0.4,�k��,0.8,���k��,-0.2,93.7,0,0,0,0,0,0,1008.9,1023.6
2024-01-08T05:01:00+09:00,0.3,�k�k��,0.8,���k��,-0.2,94,0,0,0,0,0,0,1008.8,1023.5
2024-01-08T05:02:00+09:00,0.3,�k,0.8,���k��,-0.2,94.2,0,0,0,0,0,0,1008.8,1023.5
2024-01-08T05:03:00+09:00,0.3,�k�k��,0.8,���k��,-0.1,94.3,0,0,0,0,0,0,1008.8,1023.5
2024-01-08T05:04:00+09:00,0.3,�k�k��,0.8,���k��,-0.2,94.3,0,0,0,0,0,0,1008.9,1023.6
2024-01-08T05:05:00+09:00,0.3,�k��,0.8,���k��,-0.1,94.3,0,0,0,0,0,0,1008.9,1023.6
2024-01-08T05:06:00+09:00,0.3,���k��,0.8,���k��,-0.1,94.4,0,0,0,0,0,0,1008.9,1023.6
2024-01-08T05:07:00+09:00,0.3,���k��,0.8,���k��,-0.1,94,0,0,0,0,0,0,1008.9,1023.6
2024-01-08T05:08:00+09:00,0.2,�É�,0.8,���k��,-0.1,94.5,0,0,0,0,0,0,1008.9,1023.6
2024-01-08T05:09:00+09:00,0.2,�É�,0.7,�k��,-0.3,93.8,0,0,0,0,0,0,1008.9,1023.6
2024-01-08T05:10:00+09:00,0.2,�É�,0.9,��,-0.3,93.8,0,0,0,0,0,0,1008.8,1023.5